FW0906 Weather Reports


time (UTC)temp
C
wind
direction
speed
KPH
gust
KPH
rain 1hr
cm
rain 24hr
cm
rain mn
cm
humidity
%
barometer
mb
20260904231600 -17 0.0 0.0 0.00 0.00 0.00 1012.9
20260904230126 -17 0.0 0.0 0.00 0.00 0.00 1013.1
20260904224551 -17 0.0 0.0 0.00 0.00 0.00 1013.0
20260904223050 -17 0.0 0.0 0.00 0.00 0.00 1013.1
20260904221542 -17 0.0 0.0 0.00 0.00 0.00 1013.1
20260904220039 -17 0.0 0.0 0.00 0.00 0.00 1013.1
20260904214533 -17 0.0 0.0 0.00 0.00 0.00 1013.1
20260904213030 -17 0.0 0.0 0.00 0.00 0.00 1012.8
20260904211525 -17 0.0 0.0 0.00 0.00 0.00 1012.8
20260904210021 -17 0.0 0.0 0.00 0.00 0.00 1012.9
20260904204516 -17 0.0 0.0 0.00 0.00 0.00 1013.1
20260904203012 -17 0.0 0.0 0.00 0.00 0.00 1013.3
20260904201507 -17 0.0 0.0 0.00 0.00 0.00 1013.5
20260904200004 -17 0.0 0.0 0.00 0.00 0.00 1013.9
20260904194607 -17 0.0 0.0 0.00 0.00 0.00 1014.0
20260904193053 -17 0.0 0.0 0.00 0.00 0.00 1014.2
20260904191549 -17 0.0 0.0 0.00 0.00 0.00 1014.4
20260904190045 -17 0.0 0.0 0.00 0.00 0.00 1014.6
20260904184540 -17 0.0 0.0 0.00 0.00 0.00 1014.9
20260904183036 -17 0.0 0.0 0.00 0.00 0.00 1014.9
20260904181531 -17 0.0 0.0 0.00 0.00 0.00 1015.0
20260904180027 -17 0.0 0.0 0.00 0.00 0.00 1015.4
20260904174522 -17 0.0 0.0 0.00 0.00 0.00 1015.9
20260904173021 -17 0.0 0.0 0.00 0.00 0.00 1016.3
20260904171513 -17 0.0 0.0 0.00 0.00 0.00 1016.4
20260904170009 -17 0.0 0.0 0.00 0.00 0.00 1016.8
20260904164505 -17 0.0 0.0 0.00 0.00 0.00 1016.7
20260904163108 -17 0.0 0.0 0.00 0.00 0.00 1016.6
20260904161555 -17 0.0 0.0 0.00 0.00 0.00 1016.8
20260904160103 -17 0.0 0.0 0.00 0.00 0.00 1016.4
20260904154548 -17 0.0 0.0 0.00 0.00 0.00 1016.1
20260904153051 -17 0.0 0.0 0.00 0.00 0.00 1015.6
20260904151538 -17 0.0 0.0 0.00 0.00 0.00 1015.5
20260904150037 -17 0.0 0.0 0.00 0.00 0.00 1015.3
20260904144531 -17 0.0 0.0 0.00 0.00 0.00 1015.2
20260904143025 -17 0.0 0.0 0.00 0.00 0.00 1015.3
20260904141520 -17 0.0 0.0 0.00 0.00 0.00 1015.2
20260904140014 28 300 0.0 0.0 0.00 0.00 0.00 100 1015.1
20260904134517 27 301 0.0 0.0 0.00 0.00 0.00 100 1014.9
20260904133005 27 360 0.0 0.0 0.00 0.00 0.00 100 1015.0
20260904131500 27 360 0.0 0.0 0.00 0.00 0.00 100 1014.8
20260904130105 27 254 0.0 0.0 0.00 0.00 0.00 100 1014.6
20260904124557 26 244 0.0 0.0 0.00 0.00 0.00 100 1014.3
20260904123048 25 244 0.0 1.6 0.00 0.00 0.00 100 1013.9
20260904121544 25 251 0.0 0.0 0.00 0.00 0.00 100 1013.6
20260904120052 25 360 0.0 0.0 0.00 0.00 0.00 100 1013.5
20260904114538 25 360 0.0 0.0 0.00 0.00 0.00 100 1013.4
20260904113034 25 360 0.0 9.7 0.00 0.00 0.00 100 1013.3
20260904111526 25 360 1.6 9.7 0.00 0.00 0.00 100 1013.1
20260904110022 25 360 0.0 8.0 0.00 0.00 0.00 100 1012.9
20260904104524 25 259 3.2 9.7 0.00 0.00 0.00 100 1012.9
20260904103013 25 360 3.2 14.5 0.00 0.00 0.00 100 1012.9
20260904101509 25 360 1.6 12.9 0.00 0.00 0.00 100 1012.8
20260904100004 25 225 0.0 8.0 0.00 0.00 0.00 100 1013.0
20260904094601 25 203 0.0 0.0 0.00 0.00 0.00 100 1013.2
20260904093056 25 197 0.0 0.0 0.00 0.00 0.00 100 1013.4
20260904091554 25 197 0.0 0.0 0.00 0.00 0.00 100 1013.7
20260904090051 26 197 0.0 0.0 0.00 0.00 0.00 100 1013.7
20260904084542 26 197 0.0 0.0 0.00 0.00 0.00 100 1013.6
20260904083038 26 197 0.0 0.0 0.00 0.00 0.00 100 1013.8
20260904081546 26 197 0.0 0.0 0.00 0.00 0.00 100 1013.6
20260904080030 26 197 0.0 0.0 0.00 0.00 0.00 100 1013.3
20260904074525 26 190 0.0 0.0 0.00 0.00 0.00 100 1013.1
20260904073020 26 190 0.0 0.0 0.00 0.00 0.00 100 1013.0
20260904071521 26 188 0.0 0.0 0.00 0.00 0.00 100 1013.1
20260904070018 26 177 0.0 0.0 0.00 0.00 0.00 100 1013.2
20260904064507 26 177 0.0 0.0 0.00 0.00 0.00 100 1013.5
20260904063003 27 177 0.0 0.0 0.00 0.00 0.00 100 1014.0
20260904061558 27 177 0.0 0.0 0.00 0.00 0.00 100 1014.1
20260904060055 27 177 0.0 0.0 0.00 0.00 0.00 100 1014.2
20260904054550 27 177 0.0 0.0 0.00 0.00 0.00 100 1014.3
20260904053045 27 177 0.0 0.0 0.00 0.00 0.00 100 1014.5
20260904051541 28 177 0.0 0.0 0.00 0.00 0.00 100 1014.4
20260904050037 28 177 0.0 0.0 0.00 0.00 0.00 100 1014.2
20260904044548 28 177 0.0 0.0 0.00 0.00 0.00 100 1014.2
20260904043035 28 177 0.0 0.0 0.00 0.00 0.00 100 1014.2
20260904041524 28 177 0.0 0.0 0.00 0.00 0.00 100 1014.3
20260904040019 28 177 0.0 0.0 0.00 0.00 0.00 100 1014.2
20260904034514 28 166 0.0 0.0 0.00 0.00 0.00 100 1014.3
20260904033010 29 138 0.0 0.0 0.00 0.00 0.00 100 1014.3
20260904031506 29 136 0.0 0.0 0.00 0.00 0.00 100 1014.3
20260904030008 29 136 0.0 0.0 0.00 0.00 0.00 100 1014.4
20260904024558 29 140 0.0 0.0 0.00 0.00 0.00 100 1014.3
20260904023054 30 142 0.0 0.0 0.00 0.00 0.00 100 1014.3
20260904021550 30 146 0.0 0.0 0.00 0.00 0.00 100 1014.2
20260904020045 30 152 0.0 0.0 0.00 0.00 0.00 100 1014.2
20260904014545 30 161 0.0 0.0 0.00 0.00 0.00 100 1013.9
20260904013042 30 168 0.0 0.0 0.00 0.00 0.00 100 1013.7
20260904011532 31 166 0.0 0.0 0.00 0.00 0.00 100 1013.4
20260904010028 31 167 0.0 0.0 0.00 0.00 0.00 100 1013.0
20260904004522 31 167 0.0 0.0 0.00 0.00 0.00 100 1012.7
20260904003018 31 182 0.0 0.0 0.00 0.00 0.00 100 1012.4
20260904001513 32 213 0.0 4.8 0.00 0.00 0.00 100 1012.5
20260904000011 32 209 0.0 0.0 0.00 0.00 0.00 100 1012.7
20260903234515 33 210 0.0 9.7 0.00 0.00 0.00 7 1012.7
20260903233001 33 219 0.0 9.7 0.00 0.00 0.00 18 1012.7